TimeCDT,TemperatureF,Dew PointF,Humidity,Sea Level PressureIn,VisibilityMPH,Wind Direction,Wind SpeedMPH,Gust SpeedMPH,PrecipitationIn,Events,Conditions,WindDirDegrees,DateUTC
12:15 AM,35.6,35.6,100,30.34,1.2,Calm,Calm,-,N/A,,Scattered Clouds,0,2013-09-16 05:15:00
12:35 AM,36.1,36.1,100,30.34,2.5,Calm,Calm,-,N/A,,Clear,0,2013-09-16 05:35:00
12:55 AM,37.2,37.2,100,30.35,2.0,Calm,Calm,-,N/A,,Clear,0,2013-09-16 05:55:00
1:15 AM,37.2,37.2,100,30.35,1.2,Calm,Calm,-,N/A,,Mist,0,2013-09-16 06:15:00
1:35 AM,36.3,36.3,100,30.35,1.5,Calm,Calm,-,N/A,,Mist,0,2013-09-16 06:35:00
1:55 AM,36.5,36.5,100,30.36,2.0,Calm,Calm,-,N/A,,Clear,0,2013-09-16 06:55:00
2:15 AM,35.4,35.4,100,30.36,10.0,Calm,Calm,-,N/A,,Clear,0,2013-09-16 07:15:00
2:35 AM,35.2,35.2,100,30.36,3.0,SW,4.6,-,N/A,,Clear,220,2013-09-16 07:35:00
2:55 AM,35.1,35.1,100,30.36,10.0,SSW,3.5,-,N/A,,Clear,210,2013-09-16 07:55:00
3:15 AM,35.8,35.8,100,30.36,1.5,Calm,Calm,-,N/A,,Mist,0,2013-09-16 08:15:00
3:35 AM,32.2,32.2,100,30.37,0.8,Calm,Calm,-,N/A,,Mist,0,2013-09-16 08:35:00
3:55 AM,33.3,33.3,100,30.38,3.0,SSW,3.5,-,N/A,,Clear,200,2013-09-16 08:55:00
4:15 AM,33.1,33.1,100,30.38,2.5,SSW,3.5,-,N/A,,Clear,200,2013-09-16 09:15:00
4:35 AM,33.8,33.8,100,30.39,7.0,SSW,3.5,-,N/A,,Clear,200,2013-09-16 09:35:00
4:55 AM,32.4,32.4,100,30.39,10.0,SSW,3.5,-,N/A,,Clear,210,2013-09-16 09:55:00
5:15 AM,32.2,32.2,100,30.40,4.0,SSW,3.5,-,N/A,,Clear,210,2013-09-16 10:15:00
5:35 AM,33.4,33.4,100,30.40,10.0,SW,3.5,-,N/A,,Clear,220,2013-09-16 10:35:00
5:55 AM,33.8,33.8,100,30.40,10.0,SSW,3.5,-,N/A,,Clear,210,2013-09-16 10:55:00
6:15 AM,33.6,33.6,100,30.41,10.0,Calm,Calm,-,N/A,,Clear,0,2013-09-16 11:15:00
6:35 AM,34.0,34.0,100,30.41,10.0,SW,3.5,-,N/A,,Clear,220,2013-09-16 11:35:00
6:55 AM,33.8,33.8,100,30.42,10.0,Calm,Calm,-,N/A,,Scattered Clouds,0,2013-09-16 11:55:00
7:15 AM,34.3,34.3,100,30.42,10.0,Calm,Calm,-,N/A,,Overcast,0,2013-09-16 12:15:00
7:35 AM,34.7,34.7,100,30.42,10.0,Calm,Calm,-,N/A,,Scattered Clouds,0,2013-09-16 12:35:00
7:55 AM,36.5,36.5,100,30.42,10.0,Calm,Calm,-,N/A,,Clear,0,2013-09-16 12:55:00
8:15 AM,38.5,38.5,100,30.43,10.0,Calm,Calm,-,N/A,,Clear,0,2013-09-16 13:15:00
8:35 AM,40.5,40.3,99,30.43,10.0,Calm,Calm,-,N/A,,Scattered Clouds,0,2013-09-16 13:35:00
8:55 AM,42.1,41.9,99,30.43,5.0,WSW,3.5,-,N/A,,Mostly Cloudy,240,2013-09-16 13:55:00
9:15 AM,43.3,43.0,99,30.44,10.0,West,3.5,-,N/A,,Mostly Cloudy,260,2013-09-16 14:15:00
9:35 AM,44.2,43.5,97,30.44,4.0,SW,4.6,-,N/A,,Overcast,230,2013-09-16 14:35:00
9:55 AM,47.5,45.9,94,30.44,10.0,WSW,3.5,-,N/A,,Overcast,240,2013-09-16 14:55:00
10:15 AM,51.6,46.9,84,30.44,10.0,WSW,4.6,-,N/A,,Scattered Clouds,240,2013-09-16 15:15:00
10:35 AM,53.2,46.4,78,30.44,10.0,WSW,5.8,-,N/A,,Clear,250,2013-09-16 15:35:00
10:55 AM,54.9,46.6,74,30.44,10.0,WSW,3.5,-,N/A,,Clear,250,2013-09-16 15:55:00
11:15 AM,55.4,46.4,72,30.43,10.0,Calm,Calm,-,N/A,,Clear,0,2013-09-16 16:15:00
11:35 AM,56.1,46.2,69,30.43,10.0,South,3.5,-,N/A,,Scattered Clouds,180,2013-09-16 16:35:00
11:55 AM,57.7,45.9,65,30.42,10.0,SSW,4.6,-,N/A,,Scattered Clouds,200,2013-09-16 16:55:00
12:15 PM,58.1,45.0,62,30.42,10.0,Calm,Calm,-,N/A,,Scattered Clouds,0,2013-09-16 17:15:00
12:35 PM,58.1,43.9,59,30.41,10.0,Calm,Calm,-,N/A,,Clear,0,2013-09-16 17:35:00
12:55 PM,59.0,45.1,60,30.41,10.0,Calm,Calm,-,N/A,,Scattered Clouds,0,2013-09-16 17:55:00
1:15 PM,59.5,44.2,57,30.41,10.0,Calm,Calm,-,N/A,,Scattered Clouds,0,2013-09-16 18:15:00
1:35 PM,60.6,45.1,57,30.39,10.0,SSW,5.8,-,N/A,,Clear,210,2013-09-16 18:35:00
1:55 PM,61.5,45.1,55,30.39,10.0,SSW,3.5,-,N/A,,Clear,200,2013-09-16 18:55:00
2:15 PM,61.5,45.0,55,30.38,10.0,SW,4.6,-,N/A,,Clear,220,2013-09-16 19:15:00
2:35 PM,62.6,45.0,52,30.37,10.0,Calm,Calm,-,N/A,,Clear,0,2013-09-16 19:35:00
2:55 PM,62.8,44.8,52,30.36,10.0,South,3.5,-,N/A,,Clear,190,2013-09-16 19:55:00
3:15 PM,63.9,45.3,51,30.35,10.0,ESE,3.5,-,N/A,,Clear,120,2013-09-16 20:15:00
3:35 PM,61.5,48.0,61,30.34,10.0,NE,8.1,-,N/A,,Clear,50,2013-09-16 20:35:00
3:55 PM,62.2,47.8,59,30.33,10.0,East,5.8,-,N/A,,Clear,80,2013-09-16 20:55:00
4:15 PM,61.9,47.8,60,30.33,10.0,ENE,4.6,-,N/A,,Clear,70,2013-09-16 21:15:00
4:35 PM,61.7,48.2,61,30.32,10.0,East,6.9,-,N/A,,Clear,90,2013-09-16 21:35:00
4:55 PM,61.3,48.0,62,30.32,10.0,East,5.8,-,N/A,,Clear,80,2013-09-16 21:55:00
5:15 PM,60.8,48.4,64,30.31,10.0,East,5.8,-,N/A,,Clear,80,2013-09-16 22:15:00
5:35 PM,59.9,48.4,66,30.31,10.0,East,8.1,-,N/A,,Clear,90,2013-09-16 22:35:00
5:55 PM,59.2,48.4,67,30.30,10.0,East,6.9,-,N/A,,Clear,100,2013-09-16 22:55:00
6:15 PM,57.9,48.6,71,30.30,10.0,East,5.8,-,N/A,,Clear,80,2013-09-16 23:15:00
6:35 PM,56.5,47.7,72,30.29,10.0,East,5.8,-,N/A,,Clear,80,2013-09-16 23:35:00
6:55 PM,55.0,48.2,78,30.29,10.0,East,6.9,-,N/A,,Clear,90,2013-09-16 23:55:00
7:15 PM,53.2,48.2,83,30.28,10.0,East,5.8,-,N/A,,Clear,90,2013-09-17 00:15:00
7:35 PM,51.1,47.7,88,30.28,10.0,ESE,4.6,-,N/A,,Clear,110,2013-09-17 00:35:00
7:55 PM,50.5,47.5,89,30.28,10.0,East,5.8,-,N/A,,Clear,100,2013-09-17 00:55:00
8:15 PM,50.7,47.3,88,30.28,10.0,East,5.8,-,N/A,,Clear,100,2013-09-17 01:15:00
8:35 PM,49.8,46.6,89,30.28,10.0,East,5.8,-,N/A,,Clear,100,2013-09-17 01:35:00
8:55 PM,49.1,46.4,90,30.28,10.0,East,4.6,-,N/A,,Clear,90,2013-09-17 01:55:00
9:15 PM,46.8,45.0,93,30.28,10.0,Calm,Calm,-,N/A,,Clear,0,2013-09-17 02:15:00
9:35 PM,44.4,43.3,96,30.28,10.0,Calm,Calm,-,N/A,,Clear,0,2013-09-17 02:35:00
9:55 PM,40.1,39.7,99,30.28,1.0,Calm,Calm,-,N/A,,Mist,0,2013-09-17 02:55:00
10:15 PM,39.4,39.2,99,30.28,0.8,Calm,Calm,-,N/A,,Mist,0,2013-09-17 03:15:00
10:35 PM,37.9,37.9,100,30.28,3.0,Calm,Calm,-,N/A,,Clear,0,2013-09-17 03:35:00
10:55 PM,38.8,38.8,100,30.27,1.2,Calm,Calm,-,N/A,,Mist,0,2013-09-17 03:55:00
11:15 PM,38.3,38.1,99,30.27,4.0,Calm,Calm,-,N/A,,Clear,0,2013-09-17 04:15:00
11:35 PM,37.6,37.6,100,30.27,0.5,Calm,Calm,-,N/A,Fog,Fog,0,2013-09-17 04:35:00
11:55 PM,37.0,37.0,100,30.27,0.5,Calm,Calm,-,N/A,Fog,Fog,0,2013-09-17 04:55:00